                ,  0.937,  1.134,  1.331,  1.528,  1.725,  1.922,  2.119,  2.316,  2.513,  2.711,  2.908,  3.105,  3.302,  3.499,  3.696,  3.893,  4.090,  4.287,  4.484,  4.681,  4.878,  5.076,  5.273,  5.470,  5.667,  5.864,  6.061,  6.258,  6.455,  6.652,  6.849,  7.046,  7.243,  7.441,  7.638,  7.835,  8.032,  8.229,  8.426,  8.623,  8.820,  9.017,  9.214,  9.411,  9.608,  9.806
2000/06/17 00:00,  999.0,  999.0,  999.0,  999.0,  999.0,  999.0,  999.0,  999.0,  999.0,  999.0,  999.0,  999.0,  999.0,  999.0,  999.0,  999.0,  999.0,  999.0,  999.0,  999.0,  999.0,  999.0,  999.0,  999.0,  999.0,  999.0,  999.0,  999.0,  999.0,  999.0,  999.0,  999.0,  999.0,  999.0,  999.0,  999.0,  999.0,  999.0,  999.0,  999.0,  999.0,  999.0,  999.0,  999.0,  999.0,  999.0
2000/06/17 00:10,  999.0,  999.0,  999.0,  999.0,  999.0,  999.0,  999.0,  999.0,  999.0,  999.0,  999.0,  999.0,  999.0,  999.0,  999.0,  999.0,  999.0,  999.0,  999.0,  999.0,  999.0,  999.0,  999.0,  999.0,  999.0,  999.0,    7.5,    7.6,    7.8,    9.1,    9.8,   10.1,   12.3,   16.7,   19.3,   23.9,   26.3,   25.9,   24.8,   23.5,   20.5,   19.3,   18.0,   19.4,   23.1,   25.1
2000/06/17 00:20,  999.0,  999.0,  999.0,  999.0,  999.0,  999.0,  999.0,  999.0,  999.0,  999.0,  999.0,  999.0,  999.0,  999.0,  999.0,  999.0,  999.0,  999.0,  999.0,  999.0,  999.0,  999.0,  999.0,  999.0,  999.0,  999.0,  999.0,  999.0,  999.0,    8.4,   10.1,   12.1,   14.5,   18.1,   19.7,   24.4,   24.8,   24.7,   23.6,   21.6,   19.2,   18.1,   20.1,   22.6,   24.3,   25.0
2000/06/17 00:30,  999.0,  999.0,  999.0,  999.0,  999.0,  999.0,  999.0,  999.0,    2.3,  999.0,  999.0,  999.0,  999.0,  999.0,  999.0,  999.0,  999.0,  999.0,  999.0,  999.0,  999.0,  999.0,  999.0,  999.0,  999.0,  999.0,  999.0,  999.0,  999.0,    9.0,   10.2,   13.5,   15.8,   17.6,   20.4,   24.2,   24.7,   23.4,   21.8,   18.9,   18.2,   20.5,   23.0,   24.4,   24.7,   26.0
2000/06/17 00:40,  999.0,  999.0,  999.0,  999.0,  999.0,  999.0,  999.0,  999.0,  999.0,  999.0,  999.0,  999.0,    3.7,  999.0,  999.0,  999.0,  999.0,  999.0,  999.0,  999.0,  999.0,  999.0,  999.0,  999.0,  999.0,  999.0,    6.4,    5.7,    6.5,    9.3,   11.9,   14.1,   15.0,   18.3,   22.0,   23.9,   24.2,   22.3,   20.4,   17.7,   19.9,   23.5,   25.0,   25.5,   25.9,   27.6
2000/06/17 00:50,  999.0,  999.0,  999.0,  999.0,  999.0,  999.0,  999.0,  999.0,    1.9,  999.0,  999.0,  999.0,  999.0,  999.0,  999.0,  999.0,  999.0,  999.0,  999.0,  999.0,  999.0,  999.0,    6.5,  999.0,  999.0,  999.0,  999.0,    5.3,    7.0,    8.8,   10.4,   11.8,   13.0,   18.1,   22.5,   25.0,   23.9,   22.8,   20.4,   18.5,   18.9,  999.0,  999.0,  999.0,  999.0,  999.0
2000/06/17 01:00,  999.0,  999.0,  999.0,  999.0,   -0.9,  999.0,  999.0,  999.0,  999.0,  999.0,  999.0,  999.0,  999.0,  999.0,  999.0,  999.0,  999.0,  999.0,  999.0,  999.0,  999.0,  999.0,    5.8,    6.1,    6.6,  999.0,    5.7,    5.3,  999.0,  999.0,  999.0,   11.4,   14.2,   19.0,   22.5,   24.2,   22.8,   21.8,   20.8,  999.0,  999.0,  999.0,  999.0,  999.0,  999.0,  999.0
2000/06/17 01:10,  999.0,  999.0,  999.0,  999.0,  999.0,  999.0,  999.0,  999.0,  999.0,  999.0,  999.0,    3.7,  999.0,  999.0,  999.0,  999.0,  999.0,  999.0,  999.0,  999.0,  999.0,  999.0,  999.0,    6.6,  999.0,    6.1,  999.0,  999.0,    7.3,   10.1,    9.7,   11.9,   15.9,   20.3,   23.5,   23.5,   22.5,   20.9,  999.0,  999.0,  999.0,  999.0,  999.0,  999.0,  999.0,  999.0
2000/06/17 01:20,  999.0,  999.0,  999.0,  999.0,  999.0,  999.0,  999.0,    1.6,    2.2,    2.5,    3.8,    3.7,    4.9,  999.0,  999.0,  999.0,  999.0,  999.0,  999.0,  999.0,  999.0,  999.0,    8.1,    7.6,    7.2,  999.0,  999.0,    7.6,    9.3,    9.3,    9.5,   11.8,   16.8,   20.4,   22.3,   21.7,  999.0,  999.0,  999.0,  999.0,  999.0,  999.0,  999.0,  999.0,  999.0,  999.0
2000/06/17 01:30,  999.0,  999.0,  999.0,  999.0,  999.0,  999.0,  999.0,  999.0,  999.0,    2.9,  999.0,  999.0,    6.1,  999.0,  999.0,  999.0,  999.0,  999.0,  999.0,  999.0,  999.0,  999.0,    8.2,    7.6,    7.4,  999.0,  999.0,    6.1,   10.2,  999.0,   11.1,   12.5,   16.7,   20.0,   21.4,  999.0,  999.0,  999.0,  999.0,  999.0,  999.0,  999.0,   24.1,   25.5,   27.4,   28.4
2000/06/17 01:40,  999.0,  999.0,  999.0,  999.0,  999.0,  999.0,  999.0,  999.0,  999.0,    3.2,  999.0,  999.0,  999.0,  999.0,    9.3,    8.7,  999.0,    7.5,  999.0,  999.0,  999.0,  999.0,    7.6,    7.8,    7.3,    6.2,    5.5,    6.4,  999.0,   11.0,   11.4,   13.1,   17.8,   21.6,  999.0,   20.6,   19.1,   17.4,   17.2,   19.0,   20.1,   21.7,   24.2,   26.1,   26.7,   28.1
2000/06/17 01:50,  999.0,  999.0,  999.0,  999.0,  999.0,  999.0,  999.0,  999.0,    1.4,    3.1,    5.3,    5.7,    9.0,   10.1,    9.6,    8.2,    7.9,    7.0,  999.0,  999.0,  999.0,  999.0,    7.4,    7.5,    6.3,    5.1,    5.2,    7.1,    9.6,    9.9,   11.3,   13.5,   17.7,   21.4,   22.2,   20.4,   19.6,   20.0,   18.4,  999.0,   19.9,   21.6,   22.8,   25.2,  999.0,  999.0
2000/06/17 02:00,  999.0,  999.0,  999.0,  999.0,  999.0,  999.0,  999.0,  999.0,  999.0,    4.3,    6.1,    6.4,    9.5,   10.2,   10.4,    8.8,    7.3,    7.0,    6.8,  999.0,    5.6,    6.4,    7.3,    7.3,    5.6,    5.6,    5.4,    7.3,    9.7,   10.7,   12.4,   15.0,   20.0,   23.2,   22.4,   20.9,   20.3,   20.2,   19.8,  999.0,   20.8,   21.6,  999.0,  999.0,  999.0,  999.0
2000/06/17 02:10,  999.0,  999.0,  999.0,  999.0,  999.0,  999.0,  999.0,    0.8,  999.0,  999.0,  999.0,  999.0,    9.3,   10.3,   10.7,   10.2,    7.3,    7.1,    6.5,  999.0,    5.8,    6.3,    6.7,    7.0,    6.1,    5.4,    6.5,    8.7,   10.5,   12.1,   14.3,   19.3,   22.1,   24.4,   23.6,   21.5,   20.1,   20.4,   19.0,  999.0,   20.2,   22.2,   23.7,   24.4,   25.5,   25.8
2000/06/17 02:20,  999.0,  999.0,  999.0,  999.0,  999.0,  999.0,  999.0,  999.0,    1.5,  999.0,    7.3,    7.7,    8.6,    9.6,   10.2,   10.1,    8.8,    6.6,    5.9,    5.8,    5.9,    5.5,    5.8,    6.3,    6.2,    4.7,    5.9,    8.7,    9.7,   11.1,   14.1,   20.1,   23.0,   23.4,   22.4,   21.1,   21.1,   20.9,   18.7,   20.2,  999.0,   23.0,   24.5,   23.9,   24.8,   26.7
2000/06/17 02:30,  999.0,  999.0,  999.0,  999.0,  999.0,  999.0,  999.0,  999.0,    1.5,  999.0,    7.1,  999.0,  999.0,    8.4,    9.4,    9.6,    8.9,  999.0,    5.6,    5.1,    5.9,    6.3,    6.6,    6.5,    6.1,    5.2,    6.8,    9.1,   10.0,   11.6,   16.3,   20.0,   21.9,   21.8,   21.1,   20.6,   21.1,   20.9,   19.9,   19.4,   20.7,   21.4,   22.3,  999.0,   25.6,   27.0
2000/06/17 02:40,  999.0,  999.0,  999.0,  999.0,  999.0,  999.0,  999.0,  999.0,  999.0,  999.0,  999.0,  999.0,   12.9,   12.2,   12.9,   15.3,   14.2,   15.1,    7.8,    6.0,  999.0,    6.8,    5.4,  999.0,    6.5,    5.2,    5.4,    8.3,    9.9,   12.3,   16.5,   20.2,   21.5,   20.6,   20.5,   20.2,   19.7,   19.9,  999.0,  999.0,  999.0,  999.0,  999.0,  999.0,  999.0,  999.0
2000/06/17 02:50,    1.6,    0.4,    0.4,    1.5,    0.4,    2.7,    2.3,    2.6,    4.6,    6.9,    8.6,    9.2,   11.9,   12.2,    7.3,    7.2,    3.0,    1.6,    0.2,    3.5,    3.5,    2.5,    3.5,    5.7,    6.6,    8.1,    7.6,  999.0,   10.3,   12.1,   16.2,   18.8,   20.8,   21.3,   20.4,   19.5,   19.4,   19.1,  999.0,  999.0,  999.0,  999.0,  999.0,  999.0,  999.0,  999.0
2000/06/17 03:00,  999.0,  999.0,  999.0,  999.0,  999.0,  999.0,  999.0,  999.0,  999.0,  999.0,   19.4,  999.0,  999.0,  999.0,  999.0,  999.0,  999.0,  999.0,    6.4,    5.3,    5.8,  999.0,  999.0,  999.0,    4.4,  999.0,  999.0,    9.2,    9.5,   13.7,  999.0,   19.0,   20.6,   21.2,   19.9,   19.8,   19.3,  999.0,  999.0,  999.0,  999.0,  999.0,  999.0,  999.0,  999.0,   30.8
2000/06/17 03:10,  999.0,  999.0,  999.0,  999.0,    1.7,  999.0,   -1.6,    0.8,    3.7,    3.0,    7.6,    6.8,    5.1,    3.7,    4.2,    3.7,    2.1,    5.7,    7.0,    6.4,    5.5,    4.8,    4.7,    5.5,    5.4,  999.0,    7.4,  999.0,  999.0,   13.4,   16.8,   19.7,   21.4,   22.0,   20.6,   20.4,   19.9,   19.6,  999.0,   19.9,   19.5,   20.4,   23.2,   26.8,   29.2,   30.4
2000/06/17 03:20,  999.0,  999.0,   -1.4,  999.0,    0.6,    0.2,  999.0,  999.0,  999.0,  999.0,  999.0,    7.8,    8.9,  999.0,    7.9,    8.6,    7.0,    7.0,    6.2,    9.0,    6.9,    6.2,    6.8,    6.4,  999.0,    6.3,    7.5,    8.0,    8.6,   14.8,   18.1,   21.1,   22.2,   22.3,   21.6,   21.1,   20.4,   20.0,   19.3,  999.0,   20.2,   21.2,   23.8,   26.7,   28.3,   29.1
2000/06/17 03:30,  999.0,  999.0,    4.8,  999.0,  999.0,   -0.4,  999.0,    1.7,    5.7,    6.7,    4.9,    6.5,    7.1,    7.1,    9.4,    8.7,    7.5,    5.4,    5.8,    6.1,    4.2,    5.0,    6.0,    6.8,    6.4,    6.2,    6.5,    7.9,   10.4,   15.7,   18.1,   20.4,   23.3,   23.3,   23.2,   23.0,   22.1,   21.1,   19.9,   19.7,   20.5,   21.4,   23.3,   26.1,   27.4,   28.7
2000/06/17 03:40,  999.0,  999.0,    3.6,    1.8,    2.6,    2.5,    1.9,    2.1,    3.8,    4.5,    4.5,    5.2,    5.5,    5.9,    6.4,    6.1,    5.6,    3.1,    4.1,    4.7,    4.9,    5.0,    5.9,    6.2,  999.0,  999.0,  999.0,    9.7,   11.5,   17.4,   19.4,   20.8,   24.1,   24.1,   23.3,   21.8,   20.2,   19.6,   19.1,   19.7,   19.8,   21.7,   23.4,   25.6,   27.0,   27.6
2000/06/17 03:50,  999.0,    1.7,    3.2,    2.8,    1.8,    2.7,    2.7,    4.6,    4.9,    5.7,    4.6,    5.1,    5.2,    4.8,    5.6,    6.0,    5.1,    3.0,    3.6,    2.2,    4.1,    5.0,  999.0,    6.7,  999.0,  999.0,  999.0,    9.8,   13.8,   17.6,   20.2,   21.0,   24.5,   25.7,   23.6,   22.0,   20.7,   19.8,   19.0,   19.7,   20.4,   22.3,   24.0,   25.5,   26.0,   26.7
2000/06/17 04:00,    0.9,  999.0,    4.0,    2.4,    3.2,    2.9,    3.1,    4.5,    4.7,    4.4,    5.5,    6.2,    5.4,    4.6,    8.0,    7.2,    6.8,    6.8,    5.1,    5.1,    4.0,    6.0,    5.5,  999.0,  999.0,    7.3,    7.9,    7.7,   12.0,   14.7,   16.6,   20.2,   23.3,   25.4,   25.3,   22.9,   20.2,   19.8,   20.4,   20.9,   21.3,   22.0,   23.1,   25.0,   26.3,   27.4
2000/06/17 04:10,    1.0,    3.5,    2.9,    1.8,    1.5,    1.1,    2.8,    1.8,    0.4,    0.3,    3.6,    2.5,    2.7,    1.7,    5.7,    5.1,    4.6,    2.5,    4.5,    2.8,    3.6,    5.2,    5.8,    6.5,    6.6,    6.6,    6.9,    8.1,    9.9,   11.7,   14.6,   18.1,   21.3,   24.2,   25.4,   23.5,   21.8,   21.6,   21.5,   21.0,   21.6,   21.8,   23.5,   25.4,   27.9,   30.2
2000/06/17 04:20,    2.1,    4.3,    4.9,    3.7,  999.0,  999.0,    3.5,    1.3,    3.3,    5.1,    6.1,    4.6,    4.3,    4.6,    6.6,    7.2,    5.8,    4.3,    3.6,    4.2,    5.6,    6.8,    6.6,    7.1,    7.4,  999.0,  999.0,    8.6,    9.1,    9.9,   11.7,   13.7,   17.9,   21.0,   24.1,   23.2,   22.2,   21.9,   21.8,   22.6,   22.8,   24.2,   26.4,   28.1,   29.0,   29.5
2000/06/17 04:30,   -0.9,    1.4,    2.1,  999.0,    2.9,    4.3,  999.0,    2.5,    2.6,    3.7,    3.4,    1.5,    3.1,    4.1,    6.6,    5.4,    4.0,    1.7,    2.3,    2.2,    3.7,    4.9,    6.4,    6.9,    6.9,  999.0,    7.1,    8.5,   10.1,   11.6,   12.3,   13.5,   16.2,   20.1,   23.0,   25.3,   25.4,   23.7,   23.7,   23.5,   23.7,   25.4,   27.2,   28.1,   28.6,   29.2
2000/06/17 04:40,  999.0,    0.6,    2.0,    1.5,  999.0,  999.0,    1.0,    1.1,    1.4,    1.7,    2.8,    2.8,    1.7,    2.7,    3.9,    4.1,    3.6,    2.0,    2.7,    2.1,    3.5,    4.5,    5.4,  999.0,  999.0,  999.0,  999.0,  999.0,    9.8,   10.9,   12.6,   13.4,   14.3,   18.2,   21.8,   25.8,   26.3,   26.4,   25.9,   25.7,   25.7,   25.7,   26.7,   27.8,   28.6,   29.0
2000/06/17 04:50,   -0.5,    1.1,    2.1,    1.8,    1.4,    1.4,    1.6,    1.9,    2.8,    3.3,    2.4,    2.8,    2.2,    3.3,    2.6,    0.9,    0.5,    2.0,    4.6,  999.0,  999.0,    5.0,    6.4,  999.0,  999.0,  999.0,  999.0,  999.0,   10.9,   11.6,   12.1,   12.6,   13.4,   16.7,   21.0,   24.6,   26.2,   26.2,   26.3,   26.4,   26.2,   26.7,   27.3,   28.0,   28.4,   29.2
2000/06/17 05:00,    3.3,    0.3,    0.9,    1.9,    0.5,   -0.4,   -1.0,   -0.7,    0.5,    0.4,    0.5,    1.9,    3.7,    3.0,    3.6,    4.5,    4.8,    5.0,    5.6,    6.3,    6.9,    8.2,    9.0,    9.8,   10.9,   11.3,   11.5,   11.6,   11.6,   11.7,   11.8,   12.2,   14.7,   17.5,   20.9,   24.3,   26.0,   26.2,   26.2,   26.2,   27.1,   28.0,   28.2,   28.8,   29.4,   30.3
2000/06/17 05:10,    1.1,    1.2,    1.5,    1.3,   -0.1,    0.3,   -1.0,   -1.4,   -0.3,   -0.3,    0.5,    2.6,    2.6,    2.5,    2.9,    4.6,    4.8,    6.5,    7.1,    7.0,    7.2,    8.0,    8.9,    9.4,    9.3,    9.6,    9.9,   10.8,   11.2,   11.4,   11.8,   13.3,   16.4,   18.3,   21.4,   24.1,   25.8,   26.1,   25.6,   25.8,   26.8,   27.4,   28.1,   29.0,   29.5,   30.1
2000/06/17 05:20,    1.0,   -0.7,    0.3,    0.5,    0.5,   -0.8,   -2.3,   -1.9,   -2.4,   -1.8,    0.4,    3.4,    4.7,    6.3,    8.2,    7.6,  999.0,  999.0,    8.8,    9.3,   10.0,   11.5,   12.0,   11.9,   11.8,   11.5,   11.5,   12.1,   12.0,   12.2,   13.2,   16.1,   19.4,   21.3,   22.7,   24.6,   26.0,   26.0,   25.9,   26.1,   26.4,   26.6,   27.1,   27.5,   28.1,   28.2
2000/06/17 05:30,    0.6,   -0.1,    0.9,    0.8,   -0.7,   -2.2,   -2.2,   -2.4,   -2.8,   -2.6,   -0.8,    2.2,    3.8,    6.0,    7.6,    7.8,    9.6,  999.0,  999.0,   10.1,   10.9,   11.8,   12.9,   13.3,   12.8,   12.0,   11.9,   11.5,   11.4,   13.2,   17.2,   19.3,   20.8,   21.0,   21.6,   23.3,   25.7,   25.3,   25.3,   25.1,   25.1,   25.3,   25.9,   26.7,   27.3,   27.3
2000/06/17 05:40,   -0.4,   -0.3,    0.1,   -0.7,   -1.1,   -2.0,   -2.8,   -3.4,   -3.6,   -3.3,   -0.9,    4.5,    9.0,   10.8,   12.8,   11.2,   10.8,    5.9,  999.0,    9.8,   10.1,   10.3,   10.9,   11.6,   11.4,   11.5,   11.5,   11.8,   13.4,   15.1,   17.6,   18.6,   19.5,   20.8,   21.9,   22.7,   23.7,   22.8,   22.6,   23.3,   24.5,   25.0,   25.4,   25.9,   27.0,   27.7
2000/06/17 05:50,   -0.5,   -1.3,   -1.2,   -1.6,   -2.5,   -2.6,   -4.5,   -5.6,   -5.3,   -1.6,    2.7,    8.0,   12.4,   12.6,   12.0,   10.9,   10.2,    9.1,    9.1,    8.5,    8.0,    8.4,    9.3,   10.5,   11.5,   12.8,   13.7,   14.9,   15.8,   16.5,   16.5,   17.1,   17.8,   18.5,   19.1,   19.6,   19.7,   20.3,   21.6,   23.3,   24.1,   24.6,   25.5,   25.5,   25.7,   27.4
2000/06/17 06:00,   -1.4,   -0.9,   -2.0,   -2.1,   -3.3,   -3.8,   -4.7,   -4.8,   -3.9,    1.8,    7.0,   12.1,   14.1,   12.3,   12.1,   11.7,   10.8,   10.3,    8.0,  999.0,    8.5,    9.1,    9.7,   11.1,   12.9,   14.0,   14.6,   15.1,   16.0,   16.6,   16.9,   17.3,   18.2,   18.4,   18.9,   19.1,   19.5,   20.3,   21.5,   22.3,   22.7,   23.1,   23.7,   24.1,   24.6,   25.2
2000/06/17 06:10,   -1.0,   -0.9,   -1.1,   -1.5,   -2.9,   -4.0,   -5.2,   -5.6,   -1.4,    4.6,    7.5,   11.5,   12.4,   12.0,   10.9,   11.1,    8.7,  999.0,    7.6,    6.3,    9.1,   11.6,   11.8,   11.8,   13.1,   14.0,   15.4,   17.3,   17.9,   17.7,   17.4,   17.4,   17.3,   17.3,   17.5,   18.0,   18.4,   19.7,   20.4,   20.5,   20.8,   21.7,   22.4,   23.0,   23.6,   24.8
2000/06/17 06:20,   -1.3,   -0.6,   -1.9,   -2.1,   -4.4,   -4.4,   -5.1,   -5.1,   -1.1,    2.7,    7.1,   10.1,   10.0,   10.3,    9.8,    9.4,    8.8,  999.0,  999.0,    7.7,  999.0,    9.9,    9.8,   11.2,   13.0,   14.9,   16.4,   16.7,   16.5,   17.1,   17.6,   17.5,   16.9,   16.3,   16.4,   17.0,   18.2,   19.4,   20.1,   19.7,   19.7,   20.8,   21.7,   22.0,   23.3,   24.6
2000/06/17 06:30,   -2.3,   -1.3,   -2.2,   -3.4,   -4.9,   -6.4,   -7.5,   -4.3,   -0.2,    3.3,    7.6,    8.5,    8.7,    8.2,    7.9,    8.1,    7.5,  999.0,    8.6,    8.0,    8.1,    7.9,    7.9,   10.9,   13.5,   15.1,   16.2,   16.8,   17.7,   18.2,   18.0,   18.1,   18.3,   18.2,   17.6,   17.9,   19.1,   20.3,   21.6,   22.3,   22.3,   22.0,   21.8,   22.9,   23.9,   25.1
2000/06/17 06:40,   -4.1,   -1.8,   -2.7,   -4.5,   -5.1,   -6.4,   -6.0,   -2.4,    2.0,    5.2,    7.3,    8.0,    9.4,    9.4,    8.7,    8.1,    7.6,  999.0,  999.0,   11.8,   12.7,   13.0,   13.7,   15.3,   17.0,   17.3,   17.2,   17.8,   17.7,   17.8,   17.9,   17.9,   17.8,   17.5,   17.4,   17.7,   19.3,   20.8,   23.1,   24.7,   24.4,   24.9,   25.0,  999.0,  999.0,  999.0
2000/06/17 06:50,  999.0,   -3.2,   -2.8,   -3.8,  999.0,   -5.7,   -4.7,   -0.5,    2.4,    7.2,    9.8,    9.4,    8.3,    7.5,    7.7,    7.6,    8.7,   11.1,   13.6,   15.3,   15.6,   16.5,   16.5,   16.6,   16.6,   16.6,   16.9,   17.3,   17.3,   18.1,   18.9,   19.1,   19.2,   18.4,   18.6,   19.1,   20.5,   21.8,   23.7,   24.6,   24.4,   24.7,   24.6,  999.0,  999.0,  999.0
2000/06/17 07:00,  999.0,  999.0,   -3.9,   -1.6,   -6.0,   -2.9,   -4.3,   -5.8,  999.0,    5.7,    6.6,    8.2,    4.0,    6.4,  999.0,    7.1,    8.5,   11.1,   13.9,   15.0,   16.3,   16.4,  999.0,   16.7,   17.6,   18.2,   19.3,   19.3,   19.6,   19.7,   19.8,   19.2,   19.6,   19.6,   20.8,   21.1,   21.6,   22.2,   23.1,   23.9,   24.8,   24.6,   24.6,   25.1,  999.0,  999.0
2000/06/17 07:10,  999.0,  999.0,  999.0,   -4.3,   -5.0,  999.0,   -3.1,   -0.9,    2.3,    5.3,    8.5,    8.2,    7.6,    7.2,    6.7,    5.9,    7.2,   12.7,   15.2,   15.4,  999.0,   15.0,   15.1,   15.5,   16.7,   17.8,   18.8,   18.8,   20.0,   20.0,   19.4,   19.6,   19.6,   21.5,   23.8,   24.4,   22.9,   23.4,   23.5,   24.1,   24.8,   25.5,   25.8,   26.1,   26.1,   26.1
2000/06/17 07:20,  999.0,  999.0,   -4.3,   -5.4,   -5.5,   -5.7,   -2.4,    0.0,    1.7,    5.3,    8.1,    4.9,    7.1,    7.6,    7.3,    7.5,    8.8,   12.6,  999.0,   10.3,   10.4,   11.6,   13.6,   14.9,   16.9,   19.1,   19.9,   20.2,   20.9,   20.8,   20.2,   20.6,   21.6,   21.4,   22.9,   23.9,   24.1,   23.7,   23.6,   23.1,   23.3,   24.0,   24.6,   24.8,   24.5,   25.5
2000/06/17 07:30,   -4.8,   -5.3,   -4.5,   -4.4,   -5.2,   -4.0,   -2.0,   -1.7,    1.6,    6.8,    6.9,    6.6,    6.4,    6.0,    6.2,    6.9,    9.6,   12.1,  999.0,   11.1,   11.1,   12.1,   13.7,   14.4,   16.0,   16.9,   17.3,   17.8,   18.8,   20.6,   21.0,   20.9,   21.8,   22.1,   22.1,   22.5,   23.8,   23.9,   23.2,   23.0,   22.7,   22.9,   23.0,   23.6,   24.4,   25.5
2000/06/17 07:40,   -5.9,   -6.9,   -4.8,   -7.1,   -7.3,   -3.0,   -3.0,   -0.6,    4.2,    6.7,    6.4,    6.0,    6.9,    6.6,    7.1,    8.2,   10.5,   10.5,   14.3,   14.5,   14.7,   14.8,   14.9,   15.4,   16.2,   17.0,   18.4,   18.5,   19.0,   19.3,   20.4,   20.2,   20.7,   21.0,   21.4,   21.8,   22.2,   23.5,   22.9,   23.1,   23.3,   22.8,   22.9,   25.1,   25.8,   25.0
2000/06/17 07:50,   -6.9,   -6.6,   -5.2,   -7.7,   -6.7,   -4.3,   -4.2,   -2.1,    2.0,    5.5,    5.7,    6.5,    6.6,    6.0,    7.8,   10.3,   12.6,  999.0,   14.4,   14.3,   14.3,   14.6,   15.1,   14.8,   14.8,   15.7,   16.3,   16.3,   16.5,   17.6,   18.7,   20.3,   20.6,   21.0,   21.1,   20.4,   20.2,   20.8,   21.8,   22.0,   22.5,   22.5,   22.1,   23.8,   24.0,   23.0
2000/06/17 08:00,   -7.0,   -7.5,   -8.0,   -8.2,   -7.4,   -7.2,   -6.8,   -3.0,    1.9,    4.3,    5.6,    5.0,    5.2,    6.0,    7.2,   10.5,   14.1,   14.2,  999.0,   15.4,   14.3,   13.7,   14.0,   14.7,   15.5,   15.8,   16.3,   16.6,   16.2,   15.7,   16.8,   18.7,   19.4,   19.9,   21.0,   21.6,   21.1,   20.8,   21.0,   21.9,   21.9,   21.6,   21.2,   22.8,   24.3,   23.9
2000/06/17 08:10,   -6.6,   -7.0,   -7.7,   -8.1,   -8.1,   -7.1,   -7.6,   -3.9,    0.7,    3.8,    5.2,    4.4,    4.6,    4.8,    6.9,   10.8,   13.5,  999.0,  999.0,  999.0,   13.9,   13.8,   13.9,   13.9,   14.1,   14.6,   15.7,   16.5,   16.5,   17.7,   18.6,   19.1,   19.7,   19.7,   19.5,   21.2,   20.8,   20.4,   20.1,   20.6,   20.6,   20.7,   21.7,   22.9,   24.0,   24.3
2000/06/17 08:20,   -7.2,   -8.4,   -8.1,   -9.1,   -9.1,   -7.4,   -7.7,   -3.6,    2.0,    3.6,    3.6,    2.7,    3.0,    4.6,    6.9,    9.9,   10.8,   11.3,  999.0,   14.6,   14.1,   14.1,   13.9,   13.6,   12.9,   14.0,   16.4,   16.9,   16.9,   17.7,   18.9,   19.3,   19.5,   20.2,   20.7,   21.5,   21.7,   20.4,   20.3,   21.1,   22.0,   22.8,   23.3,   23.7,   24.1,   24.3
2000/06/17 08:30,   -6.2,   -7.0,   -9.0,   -8.8,   -9.4,   -9.4,   -7.1,   -3.6,    0.7,    4.2,    4.4,    4.3,    5.4,    6.4,    8.4,   10.0,   11.7,   13.3,  999.0,  999.0,   15.8,   15.4,   15.3,   14.9,   15.1,   14.7,   14.6,   15.1,   15.8,   16.1,   16.9,   17.3,   17.5,   17.9,   19.0,   20.1,   21.1,   21.3,   21.5,   22.4,   23.3,   23.5,   23.7,   23.5,   23.6,   23.9
2000/06/17 08:40,   -6.7,   -7.3,   -7.4,   -8.3,   -8.6,   -9.8,   -9.2,   -5.1,   -0.9,    2.7,    3.6,    4.0,    4.9,    6.9,    9.6,   10.9,   13.6,   14.1,  999.0,   14.0,   13.3,   13.4,   13.6,   13.9,   14.2,   14.5,   15.2,   15.6,   15.9,   16.3,   16.8,   17.1,   17.3,   17.5,   17.9,   18.9,   19.9,   21.0,   21.6,   22.4,   23.7,   23.9,   23.2,   23.2,   23.7,   23.4
2000/06/17 08:50,   -6.6,   -7.3,   -7.6,   -7.9,   -9.9,   -9.9,   -8.6,   -3.9,    0.8,    2.9,    3.5,    3.4,    4.2,    5.0,    6.8,    9.1,   10.4,   11.2,  999.0,   12.4,   11.0,   10.7,   11.0,   11.6,   12.8,   12.7,   13.4,   14.7,   15.7,   16.6,   17.8,   18.5,   19.1,   19.2,   19.0,   19.7,   20.9,   21.3,   21.2,   21.2,   21.6,   22.8,   23.1,   23.9,   24.3,   24.5
2000/06/17 09:00,   -7.2,   -8.0,   -8.7,   -9.5,  -11.2,  -11.0,   -7.6,   -1.7,    1.7,    2.2,    2.9,    4.4,    6.2,    7.2,    8.3,    9.0,   10.5,  999.0,   14.3,   16.2,   14.4,   14.4,   14.5,   14.9,   14.6,   14.2,   14.4,   14.7,   15.2,   16.0,   16.6,   17.2,   17.4,   17.0,   18.1,   19.1,   21.3,   23.2,   22.7,   22.4,   21.7,   22.1,   22.9,   23.9,   24.4,   24.7
2000/06/17 09:10,   -7.1,   -7.5,   -7.6,   -8.3,  -10.2,  -10.6,   -9.1,   -4.9,   -0.9,    2.0,    1.9,    3.5,    5.1,    6.7,    9.0,   11.3,   13.6,   12.3,  999.0,   15.3,   14.5,   15.1,   15.9,   16.5,   16.5,   16.5,   16.5,   16.3,   16.3,   16.8,   17.3,   17.7,   17.7,   17.9,   18.3,   18.8,   19.3,   21.2,   23.2,   23.2,   22.4,   22.1,   23.0,   23.8,   24.0,   23.7
2000/06/17 09:20,   -5.7,   -8.1,   -9.6,  -11.4,  -10.6,   -9.1,   -6.6,   -1.9,   -0.0,    2.0,    2.1,    3.7,    4.6,    6.4,    8.2,   11.2,   12.6,   11.3,   12.1,   13.7,   13.9,   15.2,   15.5,   16.4,   17.0,   18.1,   18.0,   18.8,   18.7,   18.9,   18.8,   18.7,   18.8,   18.5,   18.5,   18.5,   19.2,   20.7,   22.1,   22.9,   23.1,   23.6,   24.8,   25.2,   25.0,   25.2
2000/06/17 09:30,   -6.6,   -8.5,   -9.8,  -11.3,  -11.3,   -8.8,   -4.5,   -0.7,    1.7,    3.1,    4.1,    4.8,    7.3,    9.9,   12.1,   13.3,   14.5,   13.0,   15.0,   16.6,   17.4,   15.8,   16.4,   17.7,   17.7,   18.6,   19.4,   19.2,   18.8,   18.6,   18.2,   17.5,   18.0,   18.1,   18.3,   19.3,   19.8,   19.8,   20.7,   21.6,   21.7,   22.2,   23.3,   25.1,   25.6,   26.3
2000/06/17 09:40,   -7.0,   -8.8,  -10.6,  -11.6,  -11.5,   -9.6,   -4.7,   -0.7,    2.2,    3.8,    5.4,    8.2,   11.1,   13.2,   14.4,   14.7,   15.2,   13.5,   16.0,   16.5,   17.0,   17.2,   17.6,   18.1,   18.3,   18.8,   19.1,   19.0,   19.4,   19.5,   19.8,   20.1,   20.8,   21.2,   21.2,   21.1,   20.7,   20.3,   20.2,   20.4,   20.7,   20.8,   21.7,   23.7,   25.4,   26.2
2000/06/17 09:50,   -7.6,  -10.4,  -11.9,  -12.3,  -11.6,   -7.9,   -2.9,   -0.0,    2.8,    5.2,    9.0,   11.8,   13.3,   13.5,   14.1,   15.7,   17.1,   17.4,   17.8,   18.1,   18.2,   19.0,   19.2,   19.2,   19.1,   18.9,   18.5,   18.2,   18.1,   18.7,   18.9,   18.9,   19.5,   20.1,   19.9,   20.6,   21.7,   22.1,   21.9,   21.2,   20.4,   20.5,   21.0,   22.1,   23.1,   24.6
2000/06/17 10:00,   -8.4,  -12.4,  -13.2,  -12.8,  -11.5,   -8.4,   -4.7,   -2.1,    2.4,    6.3,    9.4,   11.3,   12.3,   13.0,   15.0,   16.4,   17.9,   18.3,   19.2,   20.3,   20.6,   20.9,   21.2,   21.5,   21.5,   21.7,   21.7,   21.7,   21.3,   21.2,   20.8,   21.2,   21.8,   22.0,   21.8,   21.9,   21.9,   22.2,   22.2,   22.0,   21.5,   21.3,   21.6,   22.1,   23.8,   24.8
2000/06/17 10:10,   -7.8,  -11.7,  -12.6,  -11.6,  -10.1,   -8.1,   -6.3,   -2.9,    1.7,    4.8,    7.8,   10.5,   11.9,   13.6,   15.7,   17.5,   19.3,   18.8,   19.4,   20.4,   20.4,   20.3,   21.1,   21.1,   21.0,   21.1,   21.7,   21.8,   22.0,   22.2,   22.6,   22.7,   22.5,   22.3,   22.5,   22.8,   22.4,   21.6,   21.7,   21.8,   21.8,   22.1,   22.2,   22.9,   23.9,   24.9
2000/06/17 10:20,   -7.7,   -9.5,  -10.4,  -10.9,   -9.8,   -8.0,   -6.0,   -2.1,    1.6,    3.9,    7.4,    9.9,   10.5,   11.5,   12.6,   14.5,   17.4,   20.6,   18.6,   19.1,   19.2,   19.4,   19.6,   20.8,   20.2,   20.3,   20.3,   20.0,   20.8,   21.4,   21.8,   21.8,   21.8,   22.0,   22.2,   22.8,   22.8,   22.3,   21.9,   22.2,   22.4,   23.0,   22.8,   22.9,   23.2,   23.5
2000/06/17 10:30,   -8.3,   -8.4,   -9.3,   -9.9,   -8.3,   -8.6,   -5.9,   -2.4,    1.7,    5.5,    8.0,   10.2,   11.4,   12.7,   13.0,   14.3,   16.0,   17.6,   17.8,   19.2,   18.3,   20.1,   19.2,   20.4,   20.2,   20.4,   20.9,   21.2,   21.4,   21.6,   21.7,   21.8,   22.1,   22.9,   23.2,   23.7,   24.4,   24.4,   24.1,   23.5,   23.2,   23.6,   24.1,   24.3,   24.0,   24.0
2000/06/17 10:40,   -6.5,   -7.7,   -9.7,   -8.8,   -7.7,   -8.1,   -6.0,   -3.6,    1.9,    7.2,   10.0,   11.6,   13.1,   14.4,   15.5,   16.9,   17.6,   16.4,   15.8,  999.0,   16.0,   15.5,  999.0,  999.0,   17.2,   19.1,   19.2,   19.9,   20.1,   20.7,   21.4,   22.1,   23.0,   22.8,   22.9,   23.3,   24.9,   27.1,   27.3,   26.9,   26.8,   26.6,   26.6,   26.7,   26.6,   26.0
2000/06/17 10:50,   -7.9,   -8.7,   -9.7,   -9.2,   -9.9,   -7.7,   -4.5,   -0.2,    5.0,    8.5,   10.9,   13.5,   15.5,   16.8,   17.8,   19.9,   19.5,   17.9,  999.0,   18.9,   19.4,   18.7,   19.4,   18.6,   19.6,   19.8,   20.6,   21.6,   21.8,   22.0,   22.3,   22.3,   22.2,   22.1,   22.1,   22.5,   23.6,   24.4,   25.5,   26.1,   26.8,   26.3,   25.8,   25.8,   26.0,   26.0
2000/06/17 11:00,   -6.8,   -7.6,   -7.7,   -8.4,  -10.3,   -8.4,   -4.2,    0.2,    4.7,    8.4,   11.1,   13.0,   14.5,   15.5,   17.4,   18.8,   19.7,   19.8,   18.8,   20.0,   19.7,   19.5,   19.1,   19.9,   19.5,   19.5,   20.3,   20.0,   20.4,   20.4,   20.2,   21.0,   21.8,   21.6,   22.0,   22.6,   22.6,   23.6,   25.8,   26.1,   26.1,   25.6,   25.7,   25.6,   25.3,   24.9
2000/06/17 11:10,   -8.9,  -10.6,  -10.0,  -10.4,  -11.3,   -9.5,   -6.0,    0.3,    5.8,   10.1,   12.2,   13.0,   14.3,   13.2,   13.9,   14.9,   16.8,   17.8,   16.7,   14.1,   15.9,   15.7,   15.7,   16.3,   17.2,   18.0,   17.8,   17.8,   17.8,   18.2,   19.1,   20.3,   21.8,   22.4,   22.9,   23.6,   24.0,   24.0,   24.1,   24.3,   24.5,   24.7,   25.3,   25.6,   25.5,   25.2
2000/06/17 11:20,   -8.0,   -9.9,  -11.3,  -11.5,  -11.1,   -8.4,   -6.4,   -1.6,    3.1,    8.3,   11.7,   14.6,   16.8,   18.3,   18.9,   19.2,   19.8,   19.1,   18.9,   18.7,   18.8,   18.7,   19.2,   19.3,   20.1,   20.8,   20.8,   19.9,   19.7,   19.4,   19.3,   20.4,   21.7,   22.7,   23.3,   24.1,   24.7,   24.9,   25.7,   25.9,   25.5,   25.2,   25.1,   24.8,   24.7,   24.6
2000/06/17 11:30,  -10.2,  -12.2,  -11.9,  -12.0,  -11.0,   -7.6,   -4.4,    0.1,    5.2,   10.9,   14.0,   16.5,   18.3,   18.9,   18.4,   17.9,   17.9,   18.2,   18.5,   21.4,   20.3,   20.8,   21.5,   22.0,   22.0,   22.2,   22.3,   21.1,   19.9,   19.6,   19.9,   21.0,   22.1,   23.9,   24.9,   24.6,   25.1,   26.4,   27.4,   27.3,   26.6,   25.9,   25.5,   24.9,   25.1,   24.9
2000/06/17 11:40,   -9.6,  -11.8,  -13.8,  -12.3,  -11.1,   -6.9,   -3.4,    3.2,    9.0,   12.4,   14.2,   14.6,   15.0,   16.9,   17.4,   17.1,   16.8,   16.5,  999.0,   19.8,   20.1,   20.5,   20.9,   21.6,   21.4,   21.9,   21.7,   21.9,   21.4,   20.9,   20.4,   21.0,   21.8,   23.2,   24.4,   26.0,   25.8,   26.7,   27.7,   27.9,   27.4,   26.9,   26.0,   24.9,   25.1,   24.9
2000/06/17 11:50,   -9.7,  -11.6,  -12.2,  -11.8,   -9.1,   -6.9,   -3.5,    1.1,    6.0,   10.6,   14.3,   16.4,   17.5,   16.9,   17.8,   18.8,   18.5,   19.5,   20.4,   19.3,   19.0,   19.3,   20.0,   19.6,   20.3,   20.5,   21.1,   21.3,   21.4,   21.4,   21.7,   22.1,   22.5,   22.8,   23.7,   24.5,   24.7,   25.9,   27.4,   28.1,   27.6,   27.1,   27.0,   26.9,   25.4,   24.1
2000/06/17 12:00,   -9.9,  -11.3,  -10.1,   -9.0,   -8.2,   -5.9,   -2.1,    2.7,    8.1,   13.2,   16.7,   18.4,   18.5,   18.8,   19.7,   19.9,   19.7,   19.2,   18.7,   19.5,   19.9,   20.2,   20.2,   20.3,   20.5,   20.6,   20.7,   20.8,   21.0,   20.9,   21.2,   21.6,   21.7,   22.6,   23.0,   23.3,   24.1,   25.1,   25.8,   26.3,   26.7,   26.4,   25.9,   25.9,   25.9,   24.4
2000/06/17 12:10,   -6.1,   -6.6,   -6.9,   -7.6,   -8.4,   -4.2,    0.1,    5.3,   11.8,   15.3,   19.2,   19.7,   19.5,   19.1,   19.0,   19.0,   19.8,   19.4,   16.4,   19.2,   19.2,   18.6,   18.9,   19.6,   20.1,   20.4,   20.7,   21.1,   21.7,   21.6,   21.9,   22.1,   22.1,   22.1,   22.2,   22.6,   24.1,   25.0,   25.6,   25.2,   24.9,   25.0,   24.5,   22.6,   22.6,  999.0
2000/06/17 12:20,   -5.7,   -6.3,   -7.7,   -8.1,   -7.1,   -4.6,    0.6,    5.6,   10.8,   14.7,   16.2,   16.6,   17.2,   16.9,   16.5,   16.1,   16.6,   18.1,   18.9,   19.7,   20.8,   21.3,   21.7,   22.1,   22.4,   22.3,   21.9,   21.3,   21.7,   21.9,   21.6,   21.5,   21.5,   22.1,   22.3,  999.0,  999.0,  999.0,  999.0,  999.0,  999.0,  999.0,  999.0,  999.0,  999.0,   23.8
2000/06/17 12:30,   -7.0,   -8.0,   -8.5,   -8.4,   -5.6,   -2.8,    1.2,    6.5,   11.3,   15.3,   16.5,   16.1,   16.5,   16.7,   16.7,   17.2,   18.3,   20.3,   21.0,   22.3,   22.4,   22.3,   22.0,   22.1,   22.5,   22.7,   22.4,   22.2,   22.1,   22.2,   22.6,   22.7,   21.9,   22.3,   22.9,   23.9,   24.1,   24.7,   25.1,   25.2,   25.3,   25.2,   25.4,   25.6,   25.3,   24.7
2000/06/17 12:40,   -8.9,   -9.8,   -9.8,   -8.4,   -6.3,   -2.2,    1.9,    8.6,   13.7,   14.8,   14.8,   15.7,   16.1,   16.2,   16.5,   17.3,   18.3,   19.2,   21.2,   21.1,   21.7,   22.0,   22.3,   22.3,   22.3,   22.3,   22.4,   22.3,   22.8,   23.1,   23.6,   23.7,   22.7,   22.5,   22.7,   23.3,   23.8,   23.8,   22.9,   23.7,   23.4,   24.0,   23.6,   23.8,   23.8,   23.6
2000/06/17 12:50,   -8.1,  -10.8,  -10.5,   -8.2,   -5.6,   -1.1,    4.1,   10.7,   14.4,   16.9,   17.7,   18.2,   18.1,   18.3,   18.0,   18.4,   19.3,   17.8,   18.6,   19.6,   19.0,   19.7,   18.9,   20.0,   21.7,   22.1,   22.4,   22.8,   22.7,   23.2,   23.5,   23.3,   23.0,   22.5,   22.8,   23.3,   23.8,   24.1,   24.3,   24.9,   24.6,   24.6,  999.0,  999.0,  999.0,  999.0
2000/06/17 13:00,   -7.6,   -8.2,   -9.9,   -8.9,   -6.2,   -3.4,    2.5,    8.6,   14.2,   16.1,   17.2,   17.4,   17.1,   16.4,   17.4,   19.4,   19.6,   21.1,  999.0,   21.0,   21.2,   21.4,   21.1,   21.3,   22.2,   22.8,   23.2,   23.4,   23.8,   23.7,   23.8,   24.0,   24.1,   23.2,   22.4,   23.1,   23.6,  999.0,   23.1,  999.0,  999.0,  999.0,  999.0,  999.0,  999.0,  999.0
2000/06/17 13:10,   -7.4,   -9.0,   -8.4,   -8.7,   -7.5,   -4.0,    2.5,   10.2,   13.6,   14.9,   15.4,   16.2,   16.8,   18.0,   17.5,   17.2,   18.6,   20.0,   21.0,   21.2,   20.0,   19.9,   20.2,   20.6,   21.0,   21.4,   22.4,   22.6,   22.2,   23.2,   23.3,   23.1,   22.7,   21.7,   22.2,   22.2,   22.8,   23.5,   23.9,   24.1,   24.0,   23.5,  999.0,   21.4,   22.0,   22.4
2000/06/17 13:20,   -6.8,   -7.5,   -6.9,   -7.8,   -4.5,   -2.9,    4.1,   11.6,   15.2,   17.2,   18.5,   18.4,   18.4,   18.1,   16.8,   16.0,   17.7,   18.3,  999.0,   18.5,   18.0,   18.3,   19.0,   19.6,   19.9,   19.7,   20.1,   20.7,   21.5,   22.1,   22.5,   22.9,   22.6,   22.6,   22.8,   22.4,   22.6,   23.1,   23.4,   23.7,   24.0,   23.5,   22.6,   22.3,   22.2,   22.2
2000/06/17 13:30,   -8.9,  -11.0,  -10.5,   -7.8,   -5.2,   -1.6,    5.0,   10.8,   14.2,   15.5,   16.0,   16.5,   16.8,   17.7,   18.9,   19.5,   19.9,   19.2,   17.8,   18.4,   18.1,   18.4,   18.6,   18.4,   18.9,   19.4,   20.4,   20.8,   21.2,   21.4,   21.7,   22.0,   22.3,   22.8,   22.9,   23.1,   23.4,   23.7,   24.0,   23.9,   23.9,   24.2,   24.0,   23.8,   23.2,   22.8
2000/06/17 13:40,   -8.0,  -10.7,  -10.0,   -7.8,   -6.1,    0.9,    7.8,   13.3,   16.2,   16.9,   17.1,   17.4,   18.7,   19.3,   20.4,   20.8,   21.6,   19.7,   20.8,   21.3,   20.5,   19.9,   19.9,   20.0,   20.1,   20.3,   20.4,   20.8,   21.0,   21.2,   21.5,   21.7,   21.9,   22.4,   22.1,   22.1,   22.3,   22.6,   22.3,   22.6,   22.8,   22.7,   23.4,   23.9,   23.6,   23.2
2000/06/17 13:50,   -7.7,  -11.6,  -10.2,   -8.3,   -5.0,    0.6,    8.6,   14.0,   15.5,   16.1,   16.8,   18.1,   19.2,   19.5,   19.7,   20.9,   21.0,   21.6,   22.1,   22.5,   20.4,   19.8,   19.4,   19.2,   19.1,   18.9,   18.4,   18.3,   18.6,   19.1,   20.4,   20.3,   20.5,   20.7,   20.6,   20.6,   20.8,   21.5,   21.9,   22.1,   22.5,   23.1,   22.5,   22.2,   21.9,  999.0
2000/06/17 14:00,   -9.4,  999.0,  -11.5,   -8.7,   -5.5,    0.8,    7.9,   12.1,   14.6,   16.4,   18.0,   19.9,   20.2,   20.3,   22.0,   21.7,   23.1,   23.1,   24.1,   21.4,   21.2,   21.7,   20.7,   20.2,   19.8,   19.1,   18.7,   19.1,   19.9,   20.8,   21.6,   22.1,   22.5,   23.0,   23.1,   22.6,   22.7,   23.0,   23.4,   23.7,   23.8,   25.0,   25.3,   24.5,   23.4,   22.7
2000/06/17 14:10,   -6.4,   -9.4,  -10.5,   -8.2,   -5.4,   -1.7,    5.2,    9.3,   13.0,   14.9,   16.4,   16.9,   17.6,   17.7,   19.0,   21.0,   22.8,   23.0,   22.0,   22.8,   22.3,   21.3,   20.4,   20.2,   20.3,   21.1,   21.4,   21.2,   22.4,   23.5,   23.3,   22.6,   22.5,   22.8,   22.6,   22.2,   23.3,   23.9,   25.1,   25.5,   25.2,   25.0,   25.5,   25.1,   23.4,   22.2
2000/06/17 14:20,   -6.7,   -8.1,  -10.3,   -6.9,   -4.0,  999.0,  999.0,  999.0,   15.0,   17.7,   18.9,   19.2,   18.9,   19.8,   20.2,   20.8,   21.7,   21.6,   21.1,   21.7,   22.0,   20.7,   20.0,   20.1,   20.5,   21.2,   21.6,   22.3,   22.3,   22.4,   22.2,   21.5,   20.8,   21.0,   21.8,   22.9,   24.5,   25.3,   26.1,   25.5,   25.9,   28.7,   28.7,   25.2,   23.1,   22.6
2000/06/17 14:30,   -5.6,   -7.5,   -8.5,   -6.3,   -2.9,    1.6,    7.4,   12.0,   16.1,   17.7,   18.1,   17.6,   18.0,   18.6,   19.6,   20.3,   20.9,   20.3,  999.0,   21.3,   20.8,   20.1,   20.5,   20.8,   20.7,   20.5,   20.5,   21.1,   21.8,   22.1,   22.4,   22.6,   22.8,   23.2,   23.5,   23.2,   23.2,   23.4,   23.7,   24.2,   24.6,   26.6,   28.2,   26.6,   23.4,   21.5
2000/06/17 14:40,   -5.4,   -7.4,   -8.2,   -5.9,   -3.2,    3.5,    9.3,   14.0,   17.0,   17.6,   16.7,   17.1,   19.4,   21.2,   22.6,   22.0,   19.8,   17.7,  999.0,   20.0,   18.9,   18.1,   17.9,   18.0,   18.3,   18.3,   19.0,   18.9,   20.4,   21.5,   21.8,   22.3,   22.1,   21.8,   21.2,   21.6,   21.7,   21.9,   22.6,   24.0,   26.1,   28.9,   28.1,   26.3,   24.8,   23.4
2000/06/17 14:50,   -6.0,   -8.6,   -9.2,   -6.2,   -0.9,    7.6,   13.3,   16.0,   17.7,   17.4,   17.6,   19.0,   21.2,   22.2,   24.1,   24.1,   21.5,   19.9,   17.6,   19.0,   18.9,   18.5,   18.1,   18.0,   18.5,   18.9,   18.7,   18.9,   19.5,   20.1,   21.0,   21.1,   21.6,   21.1,   20.9,   21.8,   21.3,   22.8,   24.2,   25.0,   27.2,   29.6,   29.3,   28.6,   28.1,   27.0
2000/06/17 15:00,   -6.1,   -8.5,  999.0,  999.0,    2.9,    8.1,   11.8,   13.3,   14.1,   15.6,   16.3,   17.1,   17.1,   18.7,   20.8,   21.1,   21.2,   18.9,  999.0,   18.2,   17.6,   17.6,   17.0,   16.9,   17.2,   18.3,   19.4,   20.2,   19.9,   19.7,   19.5,   22.1,   22.3,   21.7,   21.8,   22.6,   22.9,   23.0,   23.6,   25.4,   26.9,   28.0,   28.7,   29.4,   30.5,   30.9
2000/06/17 15:10,  999.0,  999.0,  999.0,   -3.1,    2.0,    7.5,   11.7,   15.8,   16.5,   16.9,   17.8,   18.0,   18.7,   19.5,   20.2,   20.1,   20.6,   19.8,  999.0,   19.7,   18.0,   16.2,   15.8,   16.5,   18.2,   19.3,   20.7,   21.9,   22.7,   22.6,   22.3,   22.0,   21.5,   21.2,   21.3,   21.3,   21.3,   22.2,   23.2,   23.7,   24.1,   24.7,   25.5,   26.0,   28.1,   31.4
2000/06/17 15:20,   -6.0,   -7.6,  999.0,  999.0,    3.8,    8.5,   14.4,   14.8,   17.8,   17.7,   17.8,   18.5,   19.8,   20.9,   21.7,   23.3,   25.6,   22.2,   20.8,   21.1,   18.6,   17.4,   17.7,   18.9,   20.8,   21.1,   22.1,   22.7,   22.2,   21.9,   21.9,   21.7,   21.4,   21.4,   21.0,   21.2,   21.8,   22.1,   23.0,   24.3,  999.0,   25.6,   25.5,  999.0,  999.0,  999.0
2000/06/17 15:30,   -7.0,   -8.3,   -7.3,   -3.2,    3.7,    9.6,   12.9,   14.5,   14.6,   15.5,   17.3,   17.4,   17.8,   18.9,   19.8,   20.2,   20.4,   18.6,   17.5,   18.0,   17.8,   18.4,   19.0,   19.7,   22.4,   22.1,   22.0,   21.6,   21.9,   22.4,   23.7,   22.6,   21.8,   20.7,   20.9,  999.0,  999.0,   22.1,  999.0,  999.0,  999.0,  999.0,  999.0,  999.0,  999.0,  999.0
2000/06/17 15:40,   -8.2,   -8.7,   -7.1,   -3.2,    3.8,    9.9,   13.3,   13.8,   14.5,   16.5,   17.9,   19.9,   22.3,   19.9,   18.0,   19.4,   18.5,   18.2,   19.0,   17.6,  999.0,   22.1,   23.0,   23.5,   20.8,   22.4,   21.3,   23.0,   23.6,   23.2,   24.2,   24.5,   23.7,   22.3,   23.3,   23.1,   24.2,   24.1,  999.0,   23.8,  999.0,  999.0,  999.0,  999.0,  999.0,  999.0
2000/06/17 15:50,  999.0,   -8.7,   -4.5,  999.0,    6.0,  999.0,  999.0,  999.0,   10.5,   14.1,   18.1,   17.4,   23.3,   20.3,  999.0,   19.1,   19.3,   20.2,   20.2,   20.1,   20.6,   23.0,   24.7,   24.8,   22.8,   22.3,   22.3,   22.7,   23.3,   23.4,   23.6,   25.0,   25.2,   23.0,   24.3,   25.2,   25.2,   24.0,   23.6,   22.9,  999.0,  999.0,  999.0,  999.0,  999.0,  999.0
2000/06/17 16:00,  999.0,   -9.1,   -6.2,    2.2,    9.8,   12.9,   14.7,   16.0,   16.9,   17.0,   18.5,   19.2,   19.6,   21.0,  999.0,   19.9,   21.2,   20.0,   20.9,   21.7,   22.4,   23.5,   25.3,   24.1,   23.5,   23.5,   23.3,   23.2,   26.1,  999.0,  999.0,   24.6,   25.3,   25.2,  999.0,  999.0,   23.5,   23.0,   22.6,   22.8,   23.0,   23.5,   23.8,   25.1,  999.0,  999.0
2000/06/17 16:10,  999.0,  999.0,   -1.3,    3.2,   10.3,   13.3,   15.6,   16.6,   16.6,   17.4,   19.3,   20.5,   20.9,   21.9,   22.6,   21.7,   20.7,   21.2,   21.4,   22.5,   23.4,   23.0,   22.9,   24.1,  999.0,   22.3,   22.7,   24.0,   25.1,  999.0,  999.0,   23.8,   25.9,   26.1,  999.0,  999.0,  999.0,   23.5,   22.9,   22.4,  999.0,  999.0,  999.0,  999.0,  999.0,  999.0
2000/06/17 16:20,  999.0,  999.0,   -1.9,    3.9,    9.9,   14.0,   15.6,  999.0,   17.0,   16.9,   18.7,  999.0,  999.0,   20.9,   21.5,   21.7,   22.4,   22.4,   21.6,   22.4,   22.9,   22.9,   22.8,   23.1,   22.8,   23.1,   23.7,  999.0,  999.0,  999.0,  999.0,  999.0,  999.0,   24.9,   24.1,   24.9,   24.5,   23.8,   23.1,   22.4,   22.8,   23.3,   24.4,   23.5,   23.5,   25.3
2000/06/17 16:30,  999.0,  999.0,   -1.2,    4.4,   11.1,   13.5,   15.3,   15.6,   15.2,   16.8,   18.2,   18.6,   19.1,   20.7,   21.7,   22.4,   22.2,   22.8,   22.9,   24.3,   25.1,   23.6,   23.2,   23.1,   23.0,   22.9,   23.6,   22.9,   21.6,   23.0,   24.9,   27.7,  999.0,   27.6,   26.0,   25.8,   24.9,   23.6,   23.6,   23.1,   23.1,   22.8,   22.4,   23.2,   23.2,   24.4
2000/06/17 16:40,  999.0,   -7.0,   -4.9,    4.4,   10.1,   12.8,   15.1,   14.4,   14.7,   15.5,   17.3,   19.6,   21.0,   21.0,   21.1,   20.4,   20.3,   21.4,   22.1,   22.5,   22.2,   23.5,   24.3,   24.8,   23.4,   22.3,   22.4,   22.2,   21.2,   20.0,  999.0,   25.7,   28.2,   28.7,   27.5,   26.7,   25.8,   24.3,   23.7,   23.1,   23.1,   22.9,   22.5,   23.2,   24.5,   25.1
2000/06/17 16:50,  999.0,   -6.1,   -2.6,    5.8,    7.6,   11.9,   14.4,   14.1,   14.1,   17.5,   19.6,   19.4,   17.8,   19.7,   18.9,   20.6,   22.0,   22.8,   21.9,   20.6,   20.5,   22.1,   24.0,   24.5,   24.2,  999.0,  999.0,  999.0,  999.0,  999.0,  999.0,  999.0,   27.2,   26.7,   26.8,   26.8,   25.6,   25.4,   24.8,   24.3,   24.3,   24.3,   24.9,   25.0,   25.0,   24.9
2000/06/17 17:00,   -6.4,   -6.8,   -4.9,    7.5,   10.0,   12.3,   14.6,   14.9,   18.1,   17.9,   18.8,   19.8,   18.9,   18.6,   18.5,   17.1,   18.7,   20.3,   19.5,   21.1,   22.4,   22.1,   21.7,   22.4,   22.8,   23.0,   22.1,  999.0,   20.5,   22.9,  999.0,   24.3,   28.5,   27.3,   27.0,   27.0,   25.3,   24.4,   24.8,   26.1,   26.9,  999.0,  999.0,  999.0,  999.0,  999.0
2000/06/17 17:10,  999.0,   -6.2,   -0.2,   -4.1,    6.5,    9.6,   13.6,   14.1,   16.7,   14.8,   13.8,   14.5,   14.4,   19.0,  999.0,   16.3,   17.5,   18.2,   19.1,   19.7,   20.7,   20.8,   21.4,   22.2,   23.0,   21.2,   22.2,  999.0,  999.0,  999.0,   22.3,  999.0,   26.5,   25.4,  999.0,  999.0,   26.0,   26.3,   25.1,   25.8,   25.2,   23.2,   24.2,   24.4,  999.0,  999.0
2000/06/17 17:20,   -5.2,  999.0,  999.0,    6.8,    9.5,   12.2,   12.9,   15.4,   16.1,   17.6,   19.6,   20.4,   19.3,   19.4,   18.2,   18.2,   19.2,   20.2,   20.8,   21.7,   21.3,   20.6,   20.7,   21.5,   22.9,   22.1,  999.0,  999.0,  999.0,  999.0,  999.0,  999.0,  999.0,  999.0,  999.0,   25.8,   26.0,   27.8,   28.5,   28.1,   27.7,   26.7,   26.3,  999.0,  999.0,  999.0
2000/06/17 17:30,  999.0,   -5.3,   -3.7,    6.3,    9.3,   12.2,   13.9,   14.8,   16.9,   16.3,   18.1,   17.9,   18.1,   19.6,   20.1,   19.5,   21.6,   21.2,   21.3,   22.2,   21.3,   20.2,   20.2,   23.0,   23.9,   22.2,  999.0,  999.0,  999.0,  999.0,  999.0,  999.0,  999.0,  999.0,  999.0,  999.0,   24.4,  999.0,  999.0,  999.0,  999.0,  999.0,  999.0,  999.0,  999.0,  999.0
2000/06/17 17:40,   -4.8,   -6.4,   -4.4,    2.1,    9.3,   10.4,   12.7,   13.1,   15.0,   16.2,   17.7,   18.1,   18.8,   19.8,   21.0,   21.2,   21.0,   21.5,   21.5,   21.8,   21.4,   20.8,   20.5,   21.4,   21.8,  999.0,  999.0,  999.0,  999.0,  999.0,  999.0,  999.0,  999.0,   28.2,  999.0,  999.0,  999.0,  999.0,  999.0,  999.0,  999.0,  999.0,  999.0,  999.0,  999.0,  999.0
2000/06/17 17:50,   -6.9,   -6.9,   -3.0,    5.9,    9.7,   12.2,   17.1,   18.0,   20.7,   21.2,   20.2,   17.2,   18.2,   19.7,   20.5,   19.4,   17.9,   19.3,   20.9,   20.5,   20.9,   20.8,   21.9,   21.7,   21.9,   22.8,   23.6,  999.0,  999.0,  999.0,   24.4,  999.0,  999.0,   24.4,  999.0,  999.0,  999.0,  999.0,  999.0,  999.0,  999.0,  999.0,  999.0,  999.0,  999.0,  999.0
2000/06/17 18:00,  999.0,   -5.6,   -1.4,    5.8,    7.0,   14.2,   15.5,   18.4,   16.7,   18.7,   15.9,   16.3,   16.9,   15.9,   16.3,   16.9,   19.0,   18.1,   18.0,   18.1,   19.0,   21.5,   20.9,   21.9,   21.9,   24.5,  999.0,  999.0,  999.0,   23.0,   24.1,   25.2,  999.0,  999.0,   26.3,   27.7,  999.0,  999.0,  999.0,  999.0,  999.0,  999.0,  999.0,  999.0,  999.0,  999.0
2000/06/17 18:10,   -6.9,   -6.3,   -3.0,    3.6,   10.1,   13.1,   15.5,   15.8,   16.0,   15.2,   15.3,   15.4,   15.8,   14.3,   15.1,   10.4,   13.4,   13.3,   16.8,   17.3,   18.0,   18.6,   19.4,   20.2,   23.2,   23.2,  999.0,  999.0,  999.0,  999.0,  999.0,  999.0,  999.0,  999.0,   23.3,  999.0,  999.0,  999.0,  999.0,  999.0,  999.0,  999.0,  999.0,  999.0,  999.0,  999.0
2000/06/17 18:20,   -5.0,   -5.6,   -2.5,    3.6,   10.1,   13.7,   15.2,   15.7,   15.7,   15.4,   15.0,   15.3,   15.6,   15.2,   17.1,   20.3,   19.3,   17.2,   15.0,   14.5,   14.6,   15.6,   17.8,   20.2,   22.3,  999.0,  999.0,  999.0,  999.0,  999.0,  999.0,  999.0,  999.0,  999.0,  999.0,  999.0,  999.0,  999.0,  999.0,  999.0,  999.0,  999.0,  999.0,  999.0,  999.0,  999.0
2000/06/17 18:30,   -5.0,   -5.6,   -2.9,    4.6,   11.4,   13.1,   14.9,   14.7,   14.9,   15.4,   15.6,   15.7,   15.3,   16.9,   19.3,   21.7,   18.4,   17.1,   15.6,   15.9,   14.9,   15.7,   17.6,   19.7,  999.0,  999.0,  999.0,  999.0,  999.0,  999.0,  999.0,  999.0,  999.0,  999.0,  999.0,  999.0,  999.0,  999.0,  999.0,  999.0,  999.0,  999.0,  999.0,  999.0,  999.0,  999.0
2000/06/17 18:40,   -5.3,   -5.8,   -2.8,    4.4,   10.4,   13.6,   14.7,   14.9,   14.3,   13.5,   13.6,   14.6,   14.9,   15.2,   17.6,   19.1,   18.0,   15.5,   14.6,   13.4,   13.9,   15.1,   16.3,   19.9,  999.0,  999.0,  999.0,  999.0,  999.0,  999.0,  999.0,   24.3,  999.0,  999.0,  999.0,  999.0,  999.0,  999.0,  999.0,  999.0,  999.0,  999.0,  999.0,  999.0,  999.0,  999.0
2000/06/17 18:50,   -4.8,   -5.4,   -2.7,    4.0,    9.8,   14.2,   14.7,   14.2,   13.6,   12.7,   12.8,   12.7,   15.2,  999.0,   16.4,  999.0,  999.0,   16.0,   14.6,  999.0,   14.3,  999.0,   16.3,  999.0,  999.0,  999.0,  999.0,  999.0,  999.0,  999.0,  999.0,   24.7,  999.0,  999.0,  999.0,  999.0,  999.0,  999.0,  999.0,  999.0,  999.0,  999.0,  999.0,  999.0,  999.0,  999.0
2000/06/17 19:00,   -4.4,   -5.5,   -3.1,    4.4,    9.7,   14.1,   14.7,   14.2,   13.8,   13.2,   12.9,   13.0,   14.7,   16.3,   18.1,   18.5,   18.1,   16.9,   16.6,   15.5,   15.8,   15.6,   16.6,   19.1,  999.0,  999.0,  999.0,  999.0,  999.0,  999.0,  999.0,  999.0,  999.0,  999.0,  999.0,  999.0,  999.0,   25.1,  999.0,  999.0,  999.0,  999.0,   27.2,   27.5,   28.9,   30.6
2000/06/17 19:10,   -5.2,   -6.1,   -2.4,    3.6,    9.8,   13.4,   14.7,   14.8,   13.6,   12.4,   12.1,   12.4,   14.8,   16.9,   18.9,   18.2,   17.3,   17.3,  999.0,   17.1,   16.0,   17.0,   17.0,   18.9,  999.0,  999.0,  999.0,  999.0,  999.0,  999.0,  999.0,  999.0,  999.0,  999.0,  999.0,  999.0,  999.0,  999.0,  999.0,  999.0,  999.0,  999.0,  999.0,  999.0,  999.0,  999.0
2000/06/17 19:20,   -5.4,   -6.1,   -2.5,    4.3,    9.6,   13.1,   15.4,   14.6,   13.8,   12.6,   12.9,   14.4,   16.5,   17.1,   18.1,   17.4,   17.2,   17.9,   18.9,   18.2,   16.2,   16.0,   15.4,   17.1,  999.0,  999.0,  999.0,  999.0,  999.0,  999.0,  999.0,  999.0,  999.0,  999.0,  999.0,  999.0,  999.0,   26.3,   27.7,   27.8,   28.8,   29.9,   31.7,   31.0,  999.0,  999.0
2000/06/17 19:30,   -6.2,   -5.9,   -2.3,    4.6,    8.6,   11.3,   14.1,   13.1,   11.2,   10.9,   12.0,   14.9,   17.2,   18.7,   18.7,   17.2,   18.3,   20.2,   20.0,   18.2,   16.7,   15.3,   14.9,   16.0,  999.0,  999.0,  999.0,  999.0,  999.0,  999.0,  999.0,  999.0,  999.0,  999.0,  999.0,  999.0,   26.0,   29.6,   29.7,   29.3,   30.2,   31.0,   31.1,   29.9,  999.0,  999.0
2000/06/17 19:40,   -6.0,   -4.9,   -0.9,    4.4,    8.2,   11.8,   13.4,   11.9,   10.9,   10.6,   13.4,   14.5,   16.6,   16.5,   16.9,   17.1,   17.8,   17.1,   17.0,   16.3,   15.5,   14.3,   15.1,  999.0,  999.0,  999.0,  999.0,  999.0,  999.0,  999.0,  999.0,  999.0,  999.0,  999.0,  999.0,  999.0,  999.0,  999.0,   29.8,   33.1,  999.0,  999.0,  999.0,  999.0,  999.0,  999.0
2000/06/17 19:50,   -5.6,   -4.8,   -1.8,    5.2,    9.0,   12.8,   14.0,   11.9,   10.1,   12.0,   14.7,   16.3,   16.8,   17.8,   18.6,   17.6,   17.5,   17.9,   18.9,   18.6,   17.1,   16.0,   15.2,   17.1,  999.0,  999.0,  999.0,  999.0,  999.0,  999.0,  999.0,  999.0,  999.0,  999.0,  999.0,  999.0,  999.0,  999.0,   30.9,   32.6,   30.0,   28.2,   27.9,   27.3,   26.8,   28.0
2000/06/17 20:00,  999.0,  999.0,    0.2,    5.9,    9.6,   11.8,   12.9,    9.7,    9.4,   12.9,   15.2,   16.6,   16.9,   17.8,   18.0,   18.3,   17.6,   18.8,   19.6,   16.4,   15.8,   14.2,   14.3,   16.3,  999.0,  999.0,  999.0,  999.0,  999.0,  999.0,  999.0,  999.0,  999.0,  999.0,  999.0,  999.0,  999.0,  999.0,   32.0,   32.1,   30.0,   29.1,   28.3,   26.8,   26.7,   28.3
2000/06/17 20:10,   -6.2,   -4.7,   -0.7,    6.2,    9.0,   12.0,   12.8,   10.2,   11.3,   13.0,   14.1,   15.1,   16.0,   17.9,   18.7,   18.5,   17.9,   17.9,   17.3,   16.7,   15.2,   13.1,   15.2,   18.7,  999.0,  999.0,  999.0,  999.0,  999.0,  999.0,  999.0,  999.0,  999.0,  999.0,  999.0,  999.0,  999.0,  999.0,  999.0,   31.1,   30.3,   29.2,   27.6,   26.3,   26.0,   26.8
2000/06/17 20:20,   -7.0,   -3.9,    0.4,    5.8,   10.0,   11.8,   12.3,   10.4,   11.4,   12.8,   14.4,   14.3,   15.7,   17.1,   18.0,   19.3,   18.8,   17.6,   18.1,   16.8,   16.5,   15.9,   16.8,   17.7,  999.0,  999.0,  999.0,  999.0,  999.0,  999.0,  999.0,  999.0,  999.0,  999.0,  999.0,  999.0,  999.0,  999.0,   28.7,   31.0,   30.7,   30.3,   29.2,   26.8,   24.5,   24.2
2000/06/17 20:30,  999.0,  999.0,    3.2,  999.0,  999.0,   13.2,   13.6,   11.1,    9.6,   13.3,   13.5,   14.0,   15.8,   15.9,   16.4,   17.4,   18.4,   18.2,   17.6,   17.3,   15.9,   16.5,   16.1,   16.5,  999.0,  999.0,  999.0,  999.0,  999.0,  999.0,  999.0,  999.0,  999.0,  999.0,  999.0,  999.0,  999.0,   26.9,   28.9,   29.8,   30.6,   31.0,   30.3,   28.4,   25.1,   23.8
2000/06/17 20:40,  999.0,   -3.9,    1.0,    4.8,    7.3,   11.1,   11.6,    9.6,   10.9,   12.0,   13.0,   13.8,   14.9,   15.5,   16.2,   17.3,   17.4,   16.4,   17.3,   16.8,   15.1,   13.9,   14.3,   15.7,  999.0,  999.0,  999.0,  999.0,  999.0,  999.0,  999.0,  999.0,  999.0,  999.0,  999.0,  999.0,  999.0,  999.0,  999.0,   30.8,   30.8,   31.5,   30.6,   29.4,   28.0,   25.9
2000/06/17 20:50,   -6.2,   -2.8,    0.5,    4.1,    7.0,   10.7,   11.8,  999.0,   12.5,  999.0,  999.0,   13.4,   16.0,   18.5,   19.7,   18.7,   17.3,   16.4,   15.7,   13.6,   15.2,   14.8,   14.8,   16.4,  999.0,  999.0,  999.0,  999.0,  999.0,  999.0,  999.0,  999.0,  999.0,  999.0,  999.0,  999.0,  999.0,  999.0,   28.8,  999.0,  999.0,  999.0,   30.4,   30.1,   28.7,   27.2
2000/06/17 21:00,  999.0,   -4.5,   -0.1,    4.1,    8.0,   10.9,   11.4,   11.2,   12.8,   14.5,   14.9,   15.1,   16.8,   18.9,   18.4,   17.1,   16.7,   16.4,   15.5,  999.0,   11.9,   12.4,   15.6,  999.0,  999.0,  999.0,  999.0,  999.0,  999.0,  999.0,  999.0,  999.0,  999.0,  999.0,  999.0,  999.0,  999.0,  999.0,  999.0,  999.0,  999.0,  999.0,  999.0,   32.4,   30.5,   28.6
2000/06/17 21:10,   -6.2,   -3.5,    1.2,    4.9,    8.1,   10.6,  999.0,   11.8,   15.0,   12.9,   16.1,   17.3,   16.3,   18.3,   19.3,   18.5,   17.5,   16.8,   16.3,   14.6,   13.7,   13.0,   14.3,  999.0,  999.0,  999.0,  999.0,  999.0,  999.0,  999.0,  999.0,  999.0,  999.0,  999.0,  999.0,  999.0,  999.0,  999.0,  999.0,  999.0,  999.0,  999.0,  999.0,  999.0,   31.0,   30.1
2000/06/17 21:20,   -5.7,   -4.3,    1.6,    5.0,    7.6,   10.1,   10.9,   11.6,   13.2,   14.8,   15.3,   15.1,   17.8,   18.1,   18.0,   17.4,   18.0,   17.9,   17.7,   16.0,   14.1,   13.6,   16.3,  999.0,  999.0,  999.0,  999.0,  999.0,  999.0,  999.0,  999.0,  999.0,  999.0,  999.0,  999.0,  999.0,  999.0,  999.0,  999.0,  999.0,   29.8,  999.0,   29.4,   30.4,   31.7,   32.4
2000/06/17 21:30,  999.0,   -2.6,    1.6,    5.6,    8.2,   10.8,   11.2,   12.0,   13.4,  999.0,   13.4,   14.6,   16.4,   19.1,   18.9,   18.1,   18.6,   17.6,   16.4,   14.1,   12.7,   13.7,   15.9,  999.0,  999.0,  999.0,  999.0,  999.0,  999.0,  999.0,  999.0,  999.0,  999.0,  999.0,  999.0,  999.0,  999.0,  999.0,  999.0,  999.0,  999.0,  999.0,  999.0,  999.0,  999.0,  999.0
2000/06/17 21:40,   -4.8,   -2.6,    2.1,  999.0,    8.0,   10.2,  999.0,   11.3,   12.9,   13.9,   13.2,   13.8,   15.3,   16.9,   18.0,   18.4,   17.5,   16.3,   14.7,   13.5,   13.0,   13.6,   15.5,   17.6,  999.0,  999.0,  999.0,  999.0,  999.0,  999.0,  999.0,  999.0,  999.0,  999.0,  999.0,  999.0,  999.0,  999.0,  999.0,  999.0,  999.0,  999.0,  999.0,  999.0,  999.0,  999.0
2000/06/17 21:50,   -4.4,   -2.2,    1.7,  999.0,    8.2,   10.0,   10.1,  999.0,   12.4,   14.8,   13.5,   13.6,   14.6,   16.3,   18.3,   18.8,   17.6,   16.7,   16.3,   15.5,   13.8,   13.2,   15.2,  999.0,  999.0,  999.0,  999.0,  999.0,  999.0,  999.0,  999.0,  999.0,  999.0,  999.0,  999.0,  999.0,  999.0,  999.0,  999.0,  999.0,  999.0,  999.0,  999.0,  999.0,  999.0,  999.0
2000/06/17 22:00,   -4.0,   -1.8,    2.4,  999.0,    9.0,    9.9,   10.0,   10.3,   12.7,   14.1,   13.5,   12.5,   13.7,   15.3,   18.3,   19.1,   18.1,   16.9,   16.4,   15.4,   13.9,   13.3,   15.0,  999.0,  999.0,  999.0,  999.0,  999.0,  999.0,  999.0,  999.0,  999.0,  999.0,  999.0,  999.0,  999.0,  999.0,  999.0,  999.0,  999.0,  999.0,  999.0,  999.0,  999.0,  999.0,  999.0
2000/06/17 22:10,   -3.7,   -1.6,    2.1,  999.0,    9.2,    9.8,   10.8,   11.5,  999.0,   15.7,   13.6,   12.9,   13.7,   16.3,   16.7,   17.8,   17.3,   17.8,   17.8,   17.4,   15.3,   14.5,   15.6,  999.0,  999.0,  999.0,  999.0,  999.0,  999.0,  999.0,  999.0,  999.0,  999.0,  999.0,  999.0,  999.0,  999.0,  999.0,  999.0,  999.0,  999.0,  999.0,  999.0,  999.0,  999.0,  999.0
2000/06/17 22:20,   -3.7,   -0.4,    2.3,  999.0,  999.0,  999.0,  999.0,    7.4,   12.6,   15.9,   11.8,   15.0,   15.3,   16.8,   16.3,   16.6,   16.7,   17.3,   16.7,   16.3,   16.3,   15.9,   16.1,   14.5,   15.7,  999.0,  999.0,  999.0,  999.0,  999.0,  999.0,  999.0,  999.0,  999.0,  999.0,  999.0,  999.0,  999.0,  999.0,  999.0,  999.0,  999.0,  999.0,  999.0,  999.0,  999.0
2000/06/17 22:30,  999.0,  999.0,  999.0,    6.0,    8.6,    9.3,    9.4,   10.0,   11.8,   14.8,  999.0,  999.0,   12.7,   13.3,   15.6,   18.7,   19.2,   17.9,   17.2,   15.6,   15.1,   14.4,   13.8,   14.1,   15.9,  999.0,  999.0,  999.0,  999.0,  999.0,  999.0,  999.0,  999.0,  999.0,  999.0,  999.0,  999.0,  999.0,  999.0,  999.0,  999.0,  999.0,  999.0,   31.4,  999.0,  999.0
2000/06/17 22:40,   -2.3,    0.3,    1.2,    4.6,  999.0,  999.0,  999.0,  999.0,  999.0,   20.7,   10.3,   11.6,   11.6,   15.7,   18.0,   17.6,   17.2,   16.9,   16.4,   15.7,   15.0,   14.9,   16.0,   16.2,  999.0,  999.0,  999.0,  999.0,  999.0,  999.0,  999.0,  999.0,  999.0,  999.0,  999.0,  999.0,  999.0,   30.0,  999.0,   29.7,  999.0,  999.0,  999.0,   32.1,   32.6,  999.0
2000/06/17 22:50,   -3.2,   -0.3,    2.4,    6.3,    9.9,  999.0,  999.0,  999.0,  999.0,   13.0,   12.0,   13.1,   13.3,   15.4,   16.3,   15.8,   16.9,   17.2,   17.2,   16.1,   15.8,   14.9,   13.5,   13.7,   14.5,  999.0,  999.0,  999.0,  999.0,  999.0,  999.0,  999.0,  999.0,  999.0,  999.0,  999.0,  999.0,  999.0,  999.0,   29.6,  999.0,  999.0,  999.0,  999.0,  999.0,  999.0
2000/06/17 23:00,  999.0,  999.0,    3.0,  999.0,   11.1,   10.3,  999.0,   14.0,   13.7,   12.0,   11.9,   12.9,   13.9,   15.6,   15.4,   16.4,   16.4,   15.6,   17.0,   16.9,   15.3,   16.0,   14.6,   13.3,   14.5,  999.0,  999.0,  999.0,  999.0,  999.0,  999.0,  999.0,  999.0,  999.0,  999.0,  999.0,  999.0,  999.0,   28.6,  999.0,  999.0,  999.0,  999.0,  999.0,  999.0,  999.0
2000/06/17 23:10,  999.0,  999.0,    3.3,    7.5,    9.4,    9.9,   11.3,   12.5,   13.6,   11.9,   10.8,   13.2,   15.1,   15.0,   13.7,   12.9,   13.6,   13.9,   15.6,   15.1,   14.0,   13.9,   15.9,   15.8,  999.0,  999.0,  999.0,  999.0,  999.0,  999.0,  999.0,  999.0,  999.0,  999.0,  999.0,  999.0,  999.0,  999.0,  999.0,  999.0,  999.0,  999.0,  999.0,  999.0,  999.0,  999.0
2000/06/17 23:20,  999.0,    2.0,    5.4,    8.4,    9.9,   10.2,   11.2,   14.3,   15.7,   15.1,   10.9,   12.5,   12.9,   13.4,   13.8,   14.6,   15.4,   15.3,   14.7,   16.0,   13.9,   14.9,   15.3,   15.1,   14.6,   15.2,  999.0,  999.0,  999.0,  999.0,  999.0,  999.0,  999.0,  999.0,  999.0,  999.0,  999.0,  999.0,  999.0,  999.0,  999.0,  999.0,  999.0,  999.0,   32.2,   32.0
2000/06/17 23:30,  999.0,    2.4,  999.0,    8.5,  999.0,    8.7,   10.7,   14.1,   13.6,   11.9,   11.2,   11.9,   13.4,   14.0,   13.5,   14.2,   13.8,   14.3,   14.6,   15.5,   14.6,   12.4,   12.0,   12.0,   12.1,   13.9,  999.0,  999.0,  999.0,  999.0,  999.0,  999.0,  999.0,  999.0,  999.0,  999.0,  999.0,  999.0,  999.0,  999.0,  999.0,  999.0,  999.0,  999.0,  999.0,  999.0
2000/06/17 23:40,   -1.0,  999.0,  999.0,    9.4,    8.3,    8.9,   10.3,   12.0,   10.4,   12.4,   11.4,   11.7,   14.0,   13.6,   12.1,   12.8,   15.5,   14.7,   15.0,   12.7,   12.7,   12.8,   11.4,   11.5,   13.5,   15.0,  999.0,  999.0,  999.0,  999.0,  999.0,  999.0,  999.0,  999.0,  999.0,  999.0,  999.0,  999.0,  999.0,  999.0,  999.0,  999.0,  999.0,  999.0,  999.0,  999.0
2000/06/17 23:50,   -0.2,    3.3,    6.0,    9.1,    8.6,    8.9,   11.0,   11.7,   12.4,   12.8,   12.9,   13.6,   14.4,   13.9,   13.7,   14.6,   15.6,   16.0,   14.8,   14.5,   14.4,   14.5,   14.1,   15.1,  999.0,  999.0,  999.0,  999.0,  999.0,  999.0,  999.0,  999.0,  999.0,  999.0,  999.0,  999.0,  999.0,  999.0,  999.0,  999.0,  999.0,  999.0,  999.0,  999.0,  999.0,  999.0
